Skagway, AK

11:19 PM AKST on February 24, 2017 (GMT -0900)
Skagway

Weather History for PAGY - November, 2011

Change the Weather History Date:

Tuesday, November 22, 2011

  Actual Average Record
Temperature  
Mean Temperature 24 °F -  
Max Temperature 27 °F 35 °F 51 °F (2000)
Min Temperature 21 °F 28 °F 6 °F (1985)
Degree Days  
Heating Degree Days 41    
Moisture  
Dew Point 15 °F    
Average Humidity 66    
Maximum Humidity 86    
Minimum Humidity 51    
Precipitation  
Precipitation 0.00 in - - ()
Sea Level Pressure  
Sea Level Pressure 29.02 in    
Wind  
Wind Speed 18 mph (NNE)    
Max Wind Speed 28 mph    
Max Gust Speed 44 mph    
Visibility 7 miles    
Events Snow    
Averages and records for this station are not official NWS values.
T = Trace of Precipitation, MM = Missing Value Source: NWS Daily Summary

Daily Weather History Graph

Daily Weather History Graph

Search for Another Location

Airport or City:

Trip Planner

Search our weather history database for the weather conditions in past years. The results will help you decide how hot, cold, wet, or windy it might be!

Date:

Astronomy

Nov. 22, 2011 Rise Set
Actual Time 8:12 AM AKST 3:21 PM AKST
Civil Twilight 7:22 AM AKST 4:11 PM AKST
Nautical Twilight 6:30 AM AKST 5:03 PM AKST
Astronomical Twilight 5:41 AM AKST 5:52 PM AKST
Moon 4:42 AM AKST (11/22) 1:49 PM AKST (11/22)
Length of Visible Light 8h 49m
Length of Day
7h 09m
Waning Crescent, 8% of the Moon is Illuminated
Nov 22
Waning Crescent
Nov 24
New
Dec 2
First Quarter
Dec 10
Full
Dec 17
Last Quarter

Hourly Weather History & Observations

Time (AKST) Temp. Windchill Dew Point Humidity Pressure Visibility Wind Dir Wind Speed Gust Speed Precip Events Conditions
12:10 AM 21.2 °F 6.8 °F 10.4 °F 63% 29.01 in 2.5 mi NNE 17.3 mph 36.8 mph 0.00 in   Overcast
12:17 AM 21.2 °F 4.2 °F 10.4 °F 63% 29.00 in 4.0 mi NE 25.3 mph 34.5 mph 0.00 in   Overcast
12:53 AM 21.9 °F 5.5 °F 10.0 °F 60% 28.99 in 4.0 mi NE 24.2 mph 35.7 mph 0.00 in   Overcast
1:53 AM 21.0 °F 3.9 °F 10.0 °F 63% 28.99 in 5.0 mi NE 25.3 mph 39.1 mph 0.00 in   Overcast
3:53 AM 23.0 °F 6.6 °F 10.0 °F 58% 28.95 in 8.0 mi NE 25.3 mph 33.4 mph 0.00 in   Overcast
4:53 AM 23.0 °F 6.9 °F 9.0 °F 55% 28.94 in 10.0 mi NE 24.2 mph 32.2 mph 0.00 in   Mostly Cloudy
5:53 AM 24.1 °F 7.7 °F 10.0 °F 55% 28.92 in 9.0 mi NE 26.5 mph 35.7 mph 0.00 in   Scattered Clouds
6:53 AM 24.1 °F 9.4 °F 10.9 °F 57% 28.92 in 10.0 mi NE 20.7 mph 40.3 mph 0.00 in   Partly Cloudy
7:53 AM 24.1 °F 8.3 °F 10.0 °F 55% 28.92 in 10.0 mi NE 24.2 mph 40.3 mph 0.00 in   Clear
8:53 AM 24.1 °F 8.0 °F 10.0 °F 55% 28.92 in 10.0 mi NE 25.3 mph 42.6 mph 0.00 in   Clear
9:53 AM 25.0 °F 8.9 °F 10.0 °F 53% 28.94 in 8.0 mi NE 26.5 mph 41.4 mph 0.00 in   Mostly Cloudy
10:53 AM 25.0 °F 8.6 °F 10.0 °F 53% 28.95 in 8.0 mi NE 27.6 mph 43.7 mph 0.00 in   Overcast
11:53 AM 25.0 °F 9.9 °F 10.9 °F 55% 28.94 in 10.0 mi NNE 23.0 mph 36.8 mph 0.00 in   Overcast
12:53 PM 26.1 °F 11.0 °F 10.9 °F 53% 28.95 in 10.0 mi NE 24.2 mph 36.8 mph N/A   Overcast
1:53 PM 27.0 °F 12.5 °F 10.9 °F 51% 28.95 in 10.0 mi NE 23.0 mph 35.7 mph N/A   Overcast
2:53 PM 27.0 °F 11.3 °F 12.0 °F 53% 28.95 in 10.0 mi NE 27.6 mph 35.7 mph 0.00 in   Overcast
3:53 PM 27.0 °F 13.2 °F 12.0 °F 53% 28.96 in 10.0 mi NE 20.7 mph 31.1 mph N/A   Overcast
4:53 PM 27.0 °F 14.7 °F 12.0 °F 53% 28.99 in 10.0 mi NNE 16.1 mph 28.8 mph N/A   Overcast
5:51 PM 26.6 °F 15.2 °F 15.8 °F 64% 29.03 in 7.0 mi NNE 13.8 mph 23.0 mph 0.00 in Snow Light Snow
5:53 PM 26.1 °F 16.2 °F 15.1 °F 63% 29.04 in 6.0 mi NNE 10.4 mph 23.0 mph 0.00 in Snow Light Snow
6:39 PM 26.6 °F 22.6 °F 17.6 °F 69% 29.04 in 8.0 mi Variable 3.5 mph - 0.00 in Snow Light Snow
6:53 PM 26.1 °F 21.9 °F 16.0 °F 66% 29.05 in 9.0 mi Variable 3.5 mph 18.4 mph 0.00 in Snow Light Snow
7:53 PM 26.1 °F 14.0 °F 15.1 °F 63% 29.06 in 9.0 mi NE 15.0 mph 26.5 mph 0.00 in   Overcast
8:53 PM 26.1 °F 19.4 °F 19.0 °F 75% 29.08 in 9.0 mi Variable 5.8 mph - 0.00 in   Overcast
9:31 PM 24.8 °F 14.0 °F 17.6 °F 74% 29.09 in 2.5 mi NNE 11.5 mph 18.4 mph 0.00 in Snow Light Snow
9:53 PM 24.1 °F - 18.0 °F 77% 29.10 in 2.0 mi Calm Calm - 0.00 in Snow Light Snow
10:00 PM 24.8 °F - 19.4 °F 80% 29.10 in 1.8 mi Calm Calm - 0.00 in Snow Light Snow
10:08 PM 24.8 °F - 19.4 °F 80% 29.10 in 2.5 mi Calm Calm - 0.00 in Snow Light Snow
10:15 PM 24.8 °F 15.3 °F 19.4 °F 80% 29.09 in 1.8 mi NE 9.2 mph - 0.00 in Snow Light Snow
10:38 PM 24.8 °F - 19.4 °F 80% 29.10 in 2.0 mi Calm Calm - 0.00 in Snow Light Snow
10:46 PM 24.8 °F 20.5 °F 19.4 °F 80% 29.10 in 5.0 mi NW 3.5 mph - 0.00 in Snow Light Snow
10:53 PM 24.1 °F - 19.9 °F 84% 29.10 in 4.0 mi Calm Calm - 0.00 in Snow Light Snow
11:01 PM 24.8 °F 20.5 °F 21.2 °F 86% 29.10 in 5.0 mi WNW 3.5 mph - 0.00 in Snow Light Snow
11:15 PM 24.8 °F 20.5 °F 21.2 °F 86% 29.10 in 2.5 mi Variable 3.5 mph - 0.00 in Snow Light Snow
11:22 PM 24.8 °F 20.5 °F 19.4 °F 80% 29.10 in 7.0 mi NW 3.5 mph - 0.00 in Snow Light Snow
11:53 PM 24.1 °F 19.7 °F 19.9 °F 84% 29.09 in 10.0 mi NNE 3.5 mph - 0.00 in   Overcast